This demonstration page uses our WeatherBlox Daily Observations layout. Learn more.

Left ArrowRight Arrow

39.12711, -84.51439

Hourly Observations for November 30, 2022

Temp ( °F °C ) Dew Point ( °F °C ) Humidity (%) Winds ( mph kmh ) Pressure ( in mb ) Visibility ( mi km ) Precip ( " mm )
12:23 am 00:23 Cloudy with Light Rain 54 12.2 53 11.7 97 97 Calm 29.73 1007 3 5 0.06 1.52
12:53 am 00:53 Cloudy with Light Rain 53 11.7 53 11.7 100 100 Calm 29.70 1006 3 4 0.07 1.78
1:30 am 01:30 Cloudy with Light Rain 55 12.8 54 12.2 96 96 SSW 6 9 29.69 1005 4 6 0.02 0.51
1:53 am 01:53 Cloudy with Light Rain 56 13.3 55 12.8 97 97 S 10 17 29.66 1004 10 16 0.02 0.51
2:20 am 02:20 Cloudy 56 13.3 55 12.8 97 97 SSW 10 17 29.67 1005 10 16 0.01 0.13
2:53 am 02:53 Cloudy 57 13.9 55 12.8 93 93 SSW 9 15 29.67 1005 10 16 0.01 0.13
3:37 am 03:37 Cloudy with Light Rain 57 13.9 56 13.3 96 96 SSW 9 15 29.67 1005 4 6 0.03 0.76
3:53 am 03:53 Cloudy with Light Rain 57 13.9 56 13.3 96 96 SSW 8 13 29.66 1005 8 13 0.04 1.02
4:23 am 04:23 Mostly Cloudy with Light Rain 57 13.9 56 13.3 96 96 SSW 10 17 29.66 1004 8 13 0.01 0.25
4:34 am 04:34 Cloudy with Light Rain 57 13.9 56 13.3 96 96 SW 9 15 29.66 1004 6 10 0.01 0.25
4:53 am 04:53 Cloudy with Light Rain 58 14.4 56 13.3 93 93 SW 9 15 29.65 1004 10 16 0.02 0.51
5:18 am 05:18 Cloudy 53 11.7 49 9.4 86 86 WNW 15 24 29.71 1006 10 16 0.01 0.13
5:53 am 05:53 Cloudy with Mist and Fog 45 7.2 41 5 86 86 WNW 20 31 29.78 1008 6 10 0.01 0.13
6:26 am 06:26 Cloudy 41 5 36 2.2 82 82 W 25 41 29.85 1011 7 11 0.00 0.00
6:53 am 06:53 Cloudy 39 3.9 34 1.1 82 82 WNW 18 30 29.87 1012 8 13 0.00 0.00
7:53 am 07:53 Mostly Cloudy 37 2.8 28 -2.2 70 70 WNW 16 26 29.95 1014 10 16 0.00 0.00
8:53 am 08:53 Mostly Sunny 36 2.2 25 -3.9 64 64 W 24 39 30.01 1016 10 16 0.00 0.00
9:53 am 09:53 Sunny 35 1.7 24 -4.4 64 64 W 20 31 30.04 1017 10 16 0.00 0.00
10:53 am 10:53 Mostly Sunny 36 2.2 20 -6.7 52 52 W 23 37 30.10 1019 10 16 0.00 0.00
11:53 am 11:53 Sunny 37 2.8 21 -6.1 52 52 W 17 28 30.12 1020 10 16 0.00 0.00
12:53 pm 12:53 Sunny 39 3.9 22 -5.6 50 50 WSW 20 31 30.12 1020 10 16 0.00 0.00
1:53 pm 13:53 Sunny 39 3.9 19 -7.2 44 44 W 17 28 30.14 1021 10 16 0.00 0.00
2:53 pm 14:53 Sunny 40 4.4 20 -6.7 44 44 WSW 15 24 30.15 1021 10 16 0.00 0.00
3:53 pm 15:53 Sunny 40 4.4 19 -7.2 43 43 WSW 13 20 30.18 1022 10 16 0.00 0.00
4:53 pm 16:53 Sunny 38 3.3 18 -7.8 44 44 W 14 22 30.21 1023 10 16 0.00 0.00
5:53 pm 17:53 Clear 36 2.2 18 -7.8 47 47 WSW 14 22 30.24 1024 10 16 0.00 0.00
6:53 pm 18:53 Clear 34 1.1 19 -7.2 54 54 W 10 17 30.27 1025 10 16 0.00 0.00
7:53 pm 19:53 Clear 34 1.1 18 -7.8 51 51 W 15 24 30.30 1026 10 16 0.00 0.00
8:53 pm 20:53 Clear 33 0.6 18 -7.8 53 53 W 16 26 30.33 1027 10 16 0.00 0.00
9:53 pm 21:53 Clear 32 0 18 -7.8 56 56 W 18 30 30.36 1028 10 16 0.00 0.00
10:53 pm 22:53 Clear 31 -0.6 17 -8.3 56 56 W 13 20 30.37 1029 10 16 0.00 0.00
11:53 pm 23:53 Clear 30 -1.1 16 -8.9 55 55 W 14 22 30.39 1029 10 16 0.00 0.00

Powered by AerisWeather